sat.trackr.live / text

‹ back to catalog

STARLINK-31474

NORAD 59304 · 2024-056J

PAYLOAD ACTIVE UNKNOWN

§ Identity

Operator
Country
US
Launch date
2024-03-24
Launch site
AFETR
Launch vehicle
Mass (kg)
RCS (m²)

Purposes: comms

External: N2YO · Heavens-Above · Gunter

§ Orbital elements

Epoch: 2026-05-25T01:31:20.714880Z

Period
94.27 min
Inclination
43.0020°
Eccentricity
0.0001019
Mean motion
15.27588389 rev/d
Perigee alt
482.3 km
Apogee alt
483.7 km
Semi-major
6,861.2 km
B*
-7.2590e-5
RAAN
152.5588°
Arg perigee
261.4462°
Mean anomaly
98.6274°
Rev number
12,291

§ Raw data

STARLINK-314741 59304U 24056J   26145.06343420 -.00002259  00000+0 -72590-4 0  99942 59304  43.0020 152.5588 0001019 261.4462  98.6274 15.27588389122919

JSON: /api/v1/satellites/59304 · /tle

For live sub-satellite position, see the globe view (requires WebGL).

§ Visibility from observer

Set your observer location to see the next 7 days of passes ≥ 10°. The values pass through the URL so the page stays shareable.

No JS? Fill the form by hand. The geolocation button needs JavaScript.